SAS2689 ESSA-LIMC

Flight info

Callsign SAS2689
Flight time 2h 34m
Altitude 38000
Route NOSLI N850 ABAMA DCT MAKEL DCT TOLGI DCT BOMBI DCT GIGET DCT ABUKA DCT KRH DCT NATOR/N0447F390 DCT DITON DCT BASGO/N0396F290 Z424 AKASU/N0340F190 Z424 RIXUV
Aircraft A20N/M-SDE2E3FGHIRWXY/LB1

Departure

Time 2026-05-05 15:48
Airport Stockholm-Arlanda Airport (ESSA)

Arrival

Time 2026-05-05 18:22
Airport Milan Malpensa International Airport (LIMC)
Time Latitude Longitude Altitude Speed Heading
2026-05-05 15:26 59.65353 17.93556 146 ft 0 kts 76°
2026-05-05 15:37 59.65353 17.93555 145 ft 1 kts 76°
2026-05-05 15:37 59.65350 17.93528 146 ft 2 kts 75°
2026-05-05 15:37 59.65346 17.93499 146 ft 1 kts 76°
2026-05-05 15:37 59.65344 17.93481 146 ft 2 kts 66°
2026-05-05 15:38 59.65334 17.93457 146 ft 2 kts 37°
2026-05-05 15:38 59.65321 17.93444 145 ft 2 kts 11°
2026-05-05 15:38 59.65308 17.93443 146 ft 0 kts 349°
2026-05-05 15:38 59.65305 17.93444 146 ft 0 kts 345°
2026-05-05 15:42 59.65315 17.93439 145 ft 2 kts 345°
2026-05-05 15:42 59.65345 17.93423 145 ft 6 kts 346°
2026-05-05 15:42 59.65399 17.93397 145 ft 9 kts 346°
2026-05-05 15:43 59.65476 17.93358 145 ft 12 kts 345°
2026-05-05 15:43 59.65520 17.93216 145 ft 15 kts 256°
2026-05-05 15:43 59.65491 17.92999 146 ft 17 kts 253°
2026-05-05 15:43 59.65445 17.92768 145 ft 19 kts 245°
2026-05-05 15:44 59.65363 17.92552 145 ft 20 kts 223°
2026-05-05 15:44 59.65239 17.92410 145 ft 21 kts 197°
2026-05-05 15:44 59.65091 17.92345 146 ft 22 kts 191°
2026-05-05 15:44 59.64936 17.92290 146 ft 23 kts 191°
2026-05-05 15:45 59.64777 17.92234 145 ft 23 kts 190°
2026-05-05 15:45 59.64610 17.92172 146 ft 24 kts 190°
2026-05-05 15:45 59.64446 17.92113 145 ft 23 kts 188°
2026-05-05 15:45 59.64332 17.91976 145 ft 19 kts 251°
2026-05-05 15:46 59.64217 17.91864 146 ft 19 kts 189°
2026-05-05 15:46 59.64079 17.91813 146 ft 20 kts 191°
2026-05-05 15:46 59.63933 17.91761 145 ft 22 kts 191°
2026-05-05 15:46 59.63796 17.91629 146 ft 22 kts 221°
2026-05-05 15:47 59.63728 17.91442 145 ft 15 kts 273°
2026-05-05 15:47 59.63769 17.91349 145 ft 15 kts
2026-05-05 15:47 59.64191 17.91491 146 ft 93 kts 10°
2026-05-05 15:47 59.65060 17.91808 146 ft 156 kts
2026-05-05 15:48 59.66206 17.92257 567 ft 170 kts
2026-05-05 15:48 59.67360 17.92688 1223 ft 172 kts
2026-05-05 15:48 59.68553 17.92603 1666 ft 180 kts 332°
2026-05-05 15:48 59.69438 17.90860 2083 ft 189 kts 291°
2026-05-05 15:49 59.69526 17.88212 2610 ft 201 kts 262°
2026-05-05 15:49 59.69291 17.85516 3299 ft 204 kts 263°
2026-05-05 15:49 59.69090 17.82743 4005 ft 206 kts 264°
2026-05-05 15:49 59.68898 17.79928 4722 ft 208 kts 263°
2026-05-05 15:50 59.68615 17.77140 5384 ft 213 kts 257°
2026-05-05 15:50 59.68182 17.74192 5833 ft 232 kts 255°
2026-05-05 15:50 59.67681 17.71035 6301 ft 250 kts 254°
2026-05-05 15:50 59.67074 17.67734 6869 ft 264 kts 242°
2026-05-05 15:51 59.65826 17.65005 7663 ft 272 kts 216°
2026-05-05 15:51 59.64116 17.63530 8497 ft 276 kts 201°
2026-05-05 15:51 59.62299 17.62309 9234 ft 279 kts 209°
2026-05-05 15:51 59.60638 17.60346 10043 ft 278 kts 218°
2026-05-05 15:52 59.59057 17.58122 10660 ft 286 kts 219°
2026-05-05 15:52 59.57397 17.55771 11033 ft 302 kts 219°
2026-05-05 15:52 59.55674 17.53389 11680 ft 308 kts 218°
2026-05-05 15:52 59.53927 17.51025 12516 ft 307 kts 219°
2026-05-05 15:53 59.52152 17.48655 13364 ft 306 kts 219°
2026-05-05 15:53 59.50418 17.46355 14145 ft 305 kts 219°
2026-05-05 15:53 59.48658 17.44028 14901 ft 305 kts 220°
2026-05-05 15:53 59.46888 17.41697 15694 ft 304 kts 220°
2026-05-05 15:54 59.45152 17.39419 16467 ft 302 kts 221°
2026-05-05 15:54 59.43417 17.37144 17205 ft 301 kts 221°
2026-05-05 15:54 59.41663 17.34849 17845 ft 302 kts 221°
2026-05-05 15:54 59.40284 17.33045 18304 ft 305 kts 221°
2026-05-05 15:55 59.38501 17.30711 18903 ft 307 kts 221°
2026-05-05 15:55 59.36734 17.28403 19472 ft 310 kts 221°
2026-05-05 15:55 59.34917 17.26030 20030 ft 313 kts 220°
2026-05-05 15:55 59.33108 17.23675 20566 ft 316 kts 220°
2026-05-05 15:56 59.31265 17.21283 21099 ft 318 kts 220°
2026-05-05 15:56 59.29424 17.18897 21607 ft 321 kts 220°
2026-05-05 15:56 59.27544 17.16463 22107 ft 324 kts 220°
2026-05-05 15:56 59.25674 17.14045 22603 ft 326 kts 220°
2026-05-05 15:57 59.23785 17.11604 23083 ft 329 kts 220°
2026-05-05 15:57 59.21859 17.09122 23553 ft 332 kts 220°
2026-05-05 15:57 59.19912 17.06616 24014 ft 334 kts 220°
2026-05-05 15:57 59.17975 17.04127 24457 ft 336 kts 220°
2026-05-05 15:58 59.16004 17.01596 24868 ft 339 kts 220°
2026-05-05 15:58 59.14040 16.99078 25254 ft 342 kts 220°
2026-05-05 15:58 59.12036 16.96513 25646 ft 345 kts 220°
2026-05-05 15:58 59.10021 16.93937 26012 ft 348 kts 220°
2026-05-05 15:59 59.07995 16.91349 26371 ft 351 kts 220°
2026-05-05 15:59 59.05935 16.88724 26716 ft 354 kts 220°
2026-05-05 15:59 59.03859 16.86082 27063 ft 356 kts 219°
2026-05-05 15:59 59.01792 16.83457 27401 ft 359 kts 219°
2026-05-05 16:00 58.99689 16.80788 27721 ft 361 kts 219°
2026-05-05 16:00 58.97588 16.78126 28031 ft 364 kts 219°
2026-05-05 16:00 58.95469 16.75445 28347 ft 366 kts 219°
2026-05-05 16:00 58.93334 16.72748 28646 ft 368 kts 219°
2026-05-05 16:01 58.91180 16.70031 28932 ft 371 kts 219°
2026-05-05 16:01 58.88985 16.67266 29212 ft 373 kts 219°
2026-05-05 16:01 58.86819 16.64543 29498 ft 375 kts 219°
2026-05-05 16:01 58.84619 16.61782 29786 ft 377 kts 219°
2026-05-05 16:02 58.82407 16.59008 30055 ft 380 kts 219°
2026-05-05 16:02 58.80190 16.56233 30306 ft 382 kts 219°
2026-05-05 16:02 58.77985 16.53479 30591 ft 383 kts 219°
2026-05-05 16:02 58.75748 16.50692 30939 ft 383 kts 219°
2026-05-05 16:03 58.73489 16.47883 31242 ft 383 kts 219°
2026-05-05 16:03 58.71270 16.45121 31520 ft 384 kts 219°
2026-05-05 16:03 58.69004 16.42305 31827 ft 384 kts 219°
2026-05-05 16:03 58.66785 16.39553 32124 ft 384 kts 219°
2026-05-05 16:04 58.64523 16.36751 32427 ft 383 kts 219°
2026-05-05 16:04 58.62300 16.34003 32706 ft 383 kts 218°
2026-05-05 16:04 58.60044 16.31218 32986 ft 383 kts 218°
2026-05-05 16:04 58.57785 16.28434 33263 ft 383 kts 218°
2026-05-05 16:05 58.55560 16.25695 33543 ft 383 kts 218°
2026-05-05 16:05 58.53325 16.22946 33808 ft 382 kts 218°
2026-05-05 16:05 58.51083 16.20195 34058 ft 382 kts 218°
2026-05-05 16:05 58.48861 16.17473 34303 ft 382 kts 218°
2026-05-05 16:06 58.46611 16.14720 34529 ft 382 kts 218°
2026-05-05 16:06 58.44389 16.12005 34741 ft 382 kts 218°
2026-05-05 16:06 58.42128 16.09247 34952 ft 382 kts 218°
2026-05-05 16:06 58.39901 16.06535 35153 ft 382 kts 218°
2026-05-05 16:07 58.37676 16.03829 35344 ft 383 kts 218°
2026-05-05 16:07 58.35430 16.01103 35534 ft 383 kts 218°
2026-05-05 16:07 58.33179 15.98374 35701 ft 383 kts 218°
2026-05-05 16:07 58.30933 15.95656 35880 ft 383 kts 218°
2026-05-05 16:08 58.28705 15.92963 36041 ft 383 kts 218°
2026-05-05 16:08 58.26429 15.90218 36205 ft 383 kts 218°
2026-05-05 16:08 58.24200 15.87533 36354 ft 384 kts 218°
2026-05-05 16:08 58.21930 15.84802 36501 ft 384 kts 218°
2026-05-05 16:09 58.19700 15.82121 36637 ft 384 kts 218°
2026-05-05 16:09 58.17444 15.79416 36767 ft 385 kts 218°
2026-05-05 16:09 58.15194 15.76722 36900 ft 385 kts 217°
2026-05-05 16:09 58.12914 15.73994 37023 ft 385 kts 217°
2026-05-05 16:10 58.10672 15.71317 37145 ft 386 kts 217°
2026-05-05 16:10 58.08387 15.68591 37266 ft 386 kts 217°
2026-05-05 16:10 58.06130 15.65904 37373 ft 386 kts 217°
2026-05-05 16:10 58.03865 15.63214 37476 ft 387 kts 217°
2026-05-05 16:11 58.01605 15.60532 37581 ft 387 kts 217°
2026-05-05 16:11 57.94772 15.52431 37840 ft 389 kts 217°
2026-05-05 16:12 57.92500 15.49740 37863 ft 391 kts 217°
2026-05-05 16:13 57.80844 15.35994 37868 ft 402 kts 217°
2026-05-05 16:13 57.76091 15.30420 37895 ft 403 kts 216°
2026-05-05 16:14 57.66620 15.19362 37896 ft 404 kts 216°
2026-05-05 16:15 57.57100 15.08312 37896 ft 405 kts 216°
2026-05-05 16:16 57.47543 14.97289 37896 ft 406 kts 216°
2026-05-05 16:17 57.40325 14.89009 37896 ft 406 kts 216°
2026-05-05 16:18 57.33143 14.80809 37896 ft 407 kts 216°
2026-05-05 16:19 57.25922 14.72602 37897 ft 407 kts 216°
2026-05-05 16:19 57.18769 14.64511 37897 ft 407 kts 216°
2026-05-05 16:20 57.09105 14.53637 37896 ft 407 kts 216°
2026-05-05 16:22 56.97037 14.40155 37897 ft 408 kts 216°
2026-05-05 16:23 56.87421 14.29483 37897 ft 409 kts 215°
2026-05-05 16:23 56.80114 14.21419 37897 ft 409 kts 215°
2026-05-05 16:24 56.75263 14.16086 37897 ft 409 kts 215°
2026-05-05 16:25 56.67955 14.08081 37899 ft 410 kts 215°
2026-05-05 16:25 56.60625 14.00088 37906 ft 410 kts 214°
2026-05-05 16:26 56.50848 13.89488 37918 ft 410 kts 214°
2026-05-05 16:27 56.45930 13.84179 37922 ft 410 kts 214°
2026-05-05 16:27 56.41045 13.78919 37926 ft 411 kts 214°
2026-05-05 16:28 56.36149 13.73668 37933 ft 411 kts 214°
2026-05-05 16:28 56.31263 13.68441 37941 ft 411 kts 214°
2026-05-05 16:29 56.26362 13.63214 37947 ft 411 kts 214°
2026-05-05 16:29 56.21446 13.57987 37950 ft 410 kts 214°
2026-05-05 16:30 56.16538 13.52784 37951 ft 410 kts 214°
2026-05-05 16:30 56.11610 13.47576 37951 ft 411 kts 214°
2026-05-05 16:31 56.06694 13.42396 37952 ft 411 kts 214°
2026-05-05 16:31 56.01742 13.37192 37952 ft 411 kts 214°
2026-05-05 16:32 55.96830 13.32046 37951 ft 411 kts 213°
2026-05-05 16:32 55.91855 13.26850 37951 ft 412 kts 213°
2026-05-05 16:33 55.86914 13.21706 37952 ft 412 kts 213°
2026-05-05 16:33 55.81972 13.16578 37952 ft 411 kts 213°
2026-05-05 16:34 55.77031 13.11462 37950 ft 411 kts 213°
2026-05-05 16:34 55.72102 13.06374 37946 ft 411 kts 213°
2026-05-05 16:35 55.67196 13.01326 37945 ft 411 kts 213°
2026-05-05 16:35 55.62221 12.96222 37946 ft 411 kts 213°
2026-05-05 16:36 55.57296 12.91185 37948 ft 411 kts 214°
2026-05-05 16:36 55.52373 12.86164 37951 ft 411 kts 214°
2026-05-05 16:37 55.49066 12.82799 37951 ft 411 kts 214°
2026-05-05 16:37 55.46092 12.79778 37950 ft 411 kts 213°
2026-05-05 16:38 55.41141 12.74761 37951 ft 412 kts 213°
2026-05-05 16:38 55.36182 12.69752 37951 ft 412 kts 213°
2026-05-05 16:39 55.31233 12.64766 37951 ft 412 kts 213°
2026-05-05 16:39 55.26267 12.59779 37951 ft 412 kts 213°
2026-05-05 16:40 55.21306 12.54810 37952 ft 412 kts 213°
2026-05-05 16:40 55.16346 12.49858 37952 ft 411 kts 213°
2026-05-05 16:41 55.11393 12.44926 37952 ft 411 kts 213°
2026-05-05 16:41 55.06462 12.40030 37952 ft 411 kts 213°
2026-05-05 16:42 55.01473 12.35090 37952 ft 411 kts 213°
2026-05-05 16:42 54.96522 12.30205 37951 ft 411 kts 213°
2026-05-05 16:43 54.91550 12.25310 37951 ft 411 kts 213°
2026-05-05 16:43 54.86568 12.20421 37952 ft 411 kts 213°
2026-05-05 16:44 54.81605 12.15562 37951 ft 411 kts 213°
2026-05-05 16:44 54.76584 12.10661 37951 ft 411 kts 213°
2026-05-05 16:45 54.71612 12.05822 37951 ft 411 kts 213°
2026-05-05 16:45 54.66625 12.00980 37950 ft 411 kts 213°
2026-05-05 16:46 54.61628 11.96144 37945 ft 411 kts 213°
2026-05-05 16:46 54.56622 11.91313 37938 ft 411 kts 213°
2026-05-05 16:47 54.51643 11.86520 37931 ft 410 kts 213°
2026-05-05 16:47 54.46631 11.81710 37927 ft 410 kts 213°
2026-05-05 16:48 54.41557 11.77238 37926 ft 413 kts 208°
2026-05-05 16:48 54.36285 11.73286 37925 ft 413 kts 208°
2026-05-05 16:49 54.31006 11.69336 37925 ft 413 kts 208°
2026-05-05 16:49 54.28830 11.67703 37925 ft 412 kts 208°
2026-05-05 16:50 54.27644 11.66814 37925 ft 412 kts 208°
2026-05-05 16:50 54.23897 11.64001 37925 ft 412 kts 208°
2026-05-05 16:51 54.18636 11.60055 37925 ft 412 kts 208°
2026-05-05 16:51 54.13361 11.56107 37925 ft 412 kts 208°
2026-05-05 16:52 54.08123 11.52195 37925 ft 412 kts 208°
2026-05-05 16:52 54.02846 11.48265 37925 ft 413 kts 208°
2026-05-05 16:53 53.97600 11.44368 37925 ft 413 kts 208°
2026-05-05 16:53 53.92331 11.40466 37925 ft 412 kts 208°
2026-05-05 16:54 53.87048 11.36563 37925 ft 412 kts 208°
2026-05-05 16:54 53.82673 11.33342 37926 ft 412 kts 207°
2026-05-05 16:55 53.77436 11.29494 37925 ft 412 kts 207°
2026-05-05 16:55 53.72150 11.25620 37925 ft 412 kts 207°
2026-05-05 16:56 53.66858 11.21751 37925 ft 412 kts 207°
2026-05-05 16:56 53.61793 11.18059 37925 ft 412 kts 207°
2026-05-05 16:57 53.60852 11.17375 37925 ft 412 kts 207°
2026-05-05 16:57 53.55595 11.13555 37925 ft 412 kts 207°
2026-05-05 16:58 53.50346 11.09751 37925 ft 411 kts 207°
2026-05-05 16:58 53.45078 11.05943 37924 ft 411 kts 207°
2026-05-05 16:59 53.39830 11.02160 37924 ft 412 kts 207°
2026-05-05 16:59 53.36507 10.99771 37922 ft 412 kts 207°
2026-05-05 17:00 53.32252 10.96717 37917 ft 412 kts 207°
2026-05-05 17:00 53.26972 10.92937 37909 ft 412 kts 207°
2026-05-05 17:01 53.21673 10.89153 37903 ft 411 kts 206°
2026-05-05 17:01 53.16411 10.85405 37899 ft 412 kts 206°
2026-05-05 17:02 53.11159 10.81674 37899 ft 412 kts 206°
2026-05-05 17:02 53.05864 10.77924 37898 ft 412 kts 206°
2026-05-05 17:03 53.00594 10.74201 37898 ft 411 kts 206°
2026-05-05 17:03 52.95320 10.70486 37898 ft 411 kts 206°
2026-05-05 17:04 52.90042 10.66776 37899 ft 411 kts 206°
2026-05-05 17:04 52.84879 10.63158 37898 ft 411 kts 206°
2026-05-05 17:05 52.79642 10.59497 37898 ft 411 kts 206°
2026-05-05 17:05 52.74381 10.55830 37897 ft 410 kts 206°
2026-05-05 17:06 52.69117 10.52169 37891 ft 409 kts 206°
2026-05-05 17:06 52.63883 10.48539 37883 ft 409 kts 206°
2026-05-05 17:07 52.59308 10.45372 37877 ft 409 kts 206°
2026-05-05 17:07 52.54063 10.41752 37872 ft 409 kts 206°
2026-05-05 17:08 52.48828 10.38147 37870 ft 408 kts 206°
2026-05-05 17:08 52.43595 10.34555 37871 ft 408 kts 205°
2026-05-05 17:09 52.38359 10.30970 37870 ft 408 kts 205°
2026-05-05 17:09 52.33107 10.27383 37870 ft 408 kts 205°
2026-05-05 17:10 52.27872 10.23815 37870 ft 408 kts 205°
2026-05-05 17:10 52.22635 10.20256 37870 ft 408 kts 205°
2026-05-05 17:11 52.17378 10.16692 37870 ft 408 kts 205°
2026-05-05 17:11 52.12170 10.13171 37870 ft 407 kts 205°
2026-05-05 17:12 52.06938 10.09642 37870 ft 407 kts 205°
2026-05-05 17:12 52.01703 10.06119 37870 ft 407 kts 205°
2026-05-05 17:13 51.96965 10.02940 37870 ft 407 kts 205°
2026-05-05 17:13 51.94803 10.01491 37870 ft 407 kts 205°
2026-05-05 17:14 51.89570 9.97989 37870 ft 407 kts 205°
2026-05-05 17:14 51.84364 9.94514 37870 ft 407 kts 205°
2026-05-05 17:15 51.79089 9.91000 37870 ft 407 kts 205°
2026-05-05 17:15 51.73850 9.87524 37869 ft 407 kts 205°
2026-05-05 17:16 51.68608 9.84052 37870 ft 408 kts 205°
2026-05-05 17:16 51.63402 9.80610 37869 ft 407 kts 205°
2026-05-05 17:17 51.58167 9.77156 37861 ft 407 kts 205°
2026-05-05 17:17 51.52939 9.73712 37848 ft 408 kts 205°
2026-05-05 17:18 51.47709 9.70276 37833 ft 408 kts 204°
2026-05-05 17:18 51.42461 9.66836 37823 ft 408 kts 204°
2026-05-05 17:19 51.37192 9.63393 37818 ft 408 kts 204°
2026-05-05 17:19 51.31940 9.59966 37815 ft 408 kts 204°
2026-05-05 17:20 51.26697 9.56555 37815 ft 409 kts 204°
2026-05-05 17:20 51.21415 9.53129 37815 ft 409 kts 204°
2026-05-05 17:21 51.16153 9.49722 37815 ft 409 kts 204°
2026-05-05 17:22 51.08241 9.44617 37815 ft 409 kts 204°
2026-05-05 17:22 51.03005 9.41247 37815 ft 409 kts 204°
2026-05-05 17:23 50.97727 9.37861 37815 ft 410 kts 203°
2026-05-05 17:23 50.92435 9.34474 37816 ft 410 kts 202°
2026-05-05 17:24 50.87188 9.31124 37815 ft 410 kts 202°
2026-05-05 17:24 50.81907 9.27760 37815 ft 410 kts 202°
2026-05-05 17:25 50.76587 9.24378 37814 ft 411 kts 202°
2026-05-05 17:25 50.71326 9.21043 37815 ft 411 kts 202°
2026-05-05 17:26 50.66031 9.17695 37815 ft 411 kts 202°
2026-05-05 17:26 50.60699 9.14331 37815 ft 411 kts 202°
2026-05-05 17:27 50.55418 9.11008 37815 ft 411 kts 202°
2026-05-05 17:27 50.50119 9.07681 37814 ft 411 kts 202°
2026-05-05 17:28 50.44802 9.04350 37818 ft 412 kts 202°
2026-05-05 17:28 50.39492 9.01033 37821 ft 412 kts 202°
2026-05-05 17:29 50.34164 8.97711 37825 ft 412 kts 202°
2026-05-05 17:29 50.28860 8.94412 37830 ft 412 kts 202°
2026-05-05 17:30 50.23543 8.91112 37835 ft 412 kts 202°
2026-05-05 17:30 50.18268 8.87846 37839 ft 412 kts 202°
2026-05-05 17:31 50.12963 8.84570 37841 ft 412 kts 202°
2026-05-05 17:31 50.07573 8.81567 37841 ft 412 kts 197°
2026-05-05 17:32 50.02029 8.79465 37841 ft 412 kts 190°
2026-05-05 17:32 49.96377 8.78227 37841 ft 414 kts 188°
2026-05-05 17:33 49.90714 8.77089 37842 ft 414 kts 188°
2026-05-05 17:33 49.85223 8.75969 37842 ft 414 kts 188°
2026-05-05 17:34 49.79549 8.74803 37842 ft 414 kts 188°
2026-05-05 17:34 49.73898 8.73638 37842 ft 414 kts 188°
2026-05-05 17:35 49.68229 8.72471 37842 ft 414 kts 188°
2026-05-05 17:35 49.62593 8.71312 37842 ft 414 kts 188°
2026-05-05 17:36 49.56919 8.70148 37842 ft 413 kts 188°
2026-05-05 17:36 49.51246 8.69015 37841 ft 413 kts 187°
2026-05-05 17:37 49.45522 8.68073 37842 ft 413 kts 187°
2026-05-05 17:37 49.39827 8.67141 37842 ft 413 kts 187°
2026-05-05 17:38 49.34139 8.66196 37842 ft 413 kts 187°
2026-05-05 17:38 49.28405 8.65239 37841 ft 413 kts 187°
2026-05-05 17:39 49.22728 8.64292 37842 ft 414 kts 187°
2026-05-05 17:39 49.17044 8.63344 37841 ft 414 kts 187°
2026-05-05 17:40 49.11387 8.62402 37842 ft 414 kts 187°
2026-05-05 17:40 49.05672 8.61453 37842 ft 414 kts 187°
2026-05-05 17:41 49.00036 8.60520 37842 ft 414 kts 187°
2026-05-05 17:41 48.94336 8.59584 37842 ft 414 kts 187°
2026-05-05 17:42 48.88628 8.58648 37843 ft 414 kts 187°
2026-05-05 17:42 48.82880 8.57705 37842 ft 414 kts 187°
2026-05-05 17:43 48.77193 8.56772 37842 ft 414 kts 187°
2026-05-05 17:43 48.71457 8.55834 37841 ft 414 kts 187°
2026-05-05 17:44 48.65760 8.54903 37842 ft 414 kts 187°
2026-05-05 17:44 48.60059 8.53974 37841 ft 414 kts 188°
2026-05-05 17:45 48.54354 8.53047 37841 ft 415 kts 188°
2026-05-05 17:45 48.48642 8.52121 37842 ft 414 kts 188°
2026-05-05 17:46 48.42965 8.51202 37842 ft 414 kts 188°
2026-05-05 17:46 48.37267 8.50281 37841 ft 415 kts 188°
2026-05-05 17:47 48.31553 8.49359 37841 ft 415 kts 188°
2026-05-05 17:47 48.25867 8.48443 37842 ft 415 kts 188°
2026-05-05 17:48 48.20217 8.47535 37842 ft 415 kts 188°
2026-05-05 17:48 48.14567 8.46631 37492 ft 415 kts 187°
2026-05-05 17:48 48.11702 8.46176 37243 ft 415 kts 187°
2026-05-05 17:49 48.08812 8.45718 36992 ft 415 kts 187°
2026-05-05 17:49 48.05967 8.45266 36847 ft 414 kts 187°
2026-05-05 17:49 48.03217 8.44829 36845 ft 414 kts 187°
2026-05-05 17:50 47.97407 8.44123 36841 ft 416 kts 182°
2026-05-05 17:50 47.91626 8.44286 36847 ft 416 kts 181°
2026-05-05 17:51 47.85885 8.44485 36860 ft 416 kts 181°
2026-05-05 17:51 47.80145 8.44657 36873 ft 416 kts 181°
2026-05-05 17:52 47.74376 8.44819 36884 ft 416 kts 181°
2026-05-05 17:52 47.68607 8.44976 36890 ft 415 kts 181°
2026-05-05 17:53 47.62865 8.45128 36893 ft 415 kts 181°
2026-05-05 17:53 47.57104 8.45281 36895 ft 415 kts 181°
2026-05-05 17:54 47.51391 8.45433 36896 ft 415 kts 181°
2026-05-05 17:54 47.45703 8.45581 36897 ft 415 kts 181°
2026-05-05 17:55 47.39957 8.45731 36902 ft 415 kts 182°
2026-05-05 17:55 47.34260 8.45878 36910 ft 414 kts 182°
2026-05-05 17:56 47.28522 8.46035 36917 ft 414 kts 182°
2026-05-05 17:56 47.22800 8.46219 36920 ft 414 kts 182°
2026-05-05 17:57 47.17068 8.46401 36922 ft 413 kts 182°
2026-05-05 17:57 47.11351 8.46579 36922 ft 413 kts 182°
2026-05-05 17:58 47.05593 8.46757 36923 ft 413 kts 182°
2026-05-05 17:58 46.99908 8.46932 36923 ft 412 kts 182°
2026-05-05 17:59 46.94188 8.47107 36922 ft 412 kts 182°
2026-05-05 17:59 46.88509 8.47282 36595 ft 406 kts 182°
2026-05-05 17:59 46.86712 8.47338 36218 ft 406 kts 182°
2026-05-05 18:00 46.85096 8.47387 35803 ft 408 kts 182°
2026-05-05 18:00 46.82281 8.47472 35044 ft 410 kts 183°
2026-05-05 18:00 46.79421 8.47558 34301 ft 411 kts 183°
2026-05-05 18:01 46.76566 8.47646 33590 ft 412 kts 183°
2026-05-05 18:01 46.73724 8.47732 32855 ft 413 kts 183°
2026-05-05 18:01 46.70878 8.47819 32092 ft 414 kts 183°
2026-05-05 18:01 46.67992 8.47907 31291 ft 415 kts 183°
2026-05-05 18:02 46.65117 8.47994 30508 ft 416 kts 183°
2026-05-05 18:02 46.62233 8.48082 29864 ft 413 kts 184°
2026-05-05 18:02 46.59405 8.48168 29296 ft 409 kts 183°
2026-05-05 18:02 46.56567 8.48253 28711 ft 405 kts 184°
2026-05-05 18:03 46.53772 8.48335 28115 ft 402 kts 183°
2026-05-05 18:03 46.50993 8.48417 27525 ft 399 kts 183°
2026-05-05 18:03 46.48234 8.48498 26929 ft 396 kts 183°
2026-05-05 18:03 46.45509 8.48579 26346 ft 393 kts 183°
2026-05-05 18:04 46.42801 8.48658 25768 ft 390 kts 182°
2026-05-05 18:04 46.40093 8.48738 25185 ft 387 kts 182°
2026-05-05 18:04 46.37412 8.48816 24604 ft 385 kts 182°
2026-05-05 18:04 46.34757 8.48895 24045 ft 382 kts 182°
2026-05-05 18:05 46.32119 8.48973 23495 ft 379 kts 182°
2026-05-05 18:05 46.29500 8.49052 22948 ft 377 kts 182°
2026-05-05 18:05 46.26908 8.49131 22408 ft 374 kts 182°
2026-05-05 18:05 46.24310 8.49207 21860 ft 372 kts 182°
2026-05-05 18:06 46.21752 8.49281 21322 ft 369 kts 182°
2026-05-05 18:06 46.20070 8.49329 20966 ft 368 kts 182°
2026-05-05 18:06 46.16663 8.49428 20251 ft 364 kts 182°
2026-05-05 18:06 46.14191 8.49502 19722 ft 362 kts 181°
2026-05-05 18:07 46.11697 8.49836 19177 ft 362 kts 174°
2026-05-05 18:07 46.09237 8.50622 18639 ft 362 kts 167°
2026-05-05 18:07 46.06864 8.51783 18105 ft 361 kts 163°
2026-05-05 18:07 46.04508 8.53049 17570 ft 359 kts 163°
2026-05-05 18:08 46.02204 8.54301 17053 ft 357 kts 163°
2026-05-05 18:08 45.99899 8.55549 16542 ft 354 kts 162°
2026-05-05 18:08 45.97609 8.56786 16011 ft 352 kts 163°
2026-05-05 18:08 45.95346 8.58001 15484 ft 351 kts 162°
2026-05-05 18:09 45.93072 8.59220 14974 ft 348 kts 162°
2026-05-05 18:09 45.90845 8.60480 14453 ft 347 kts 158°
2026-05-05 18:09 45.88780 8.61956 13964 ft 346 kts 155°
2026-05-05 18:09 45.86621 8.63589 13447 ft 344 kts 154°
2026-05-05 18:10 45.84520 8.65186 12950 ft 342 kts 154°
2026-05-05 18:10 45.82408 8.66784 12448 ft 340 kts 154°
2026-05-05 18:10 45.80343 8.68338 11954 ft 338 kts 154°
2026-05-05 18:10 45.78286 8.69881 11470 ft 335 kts 154°
2026-05-05 18:11 45.76242 8.71407 10990 ft 333 kts 154°
2026-05-05 18:11 45.74284 8.72867 10524 ft 331 kts 154°
2026-05-05 18:11 45.72183 8.74432 10020 ft 329 kts 154°
2026-05-05 18:11 45.70158 8.75939 9536 ft 327 kts 153°
2026-05-05 18:12 45.68149 8.77433 9051 ft 325 kts 153°
2026-05-05 18:12 45.66153 8.78917 8564 ft 323 kts 153°
2026-05-05 18:12 45.64182 8.80382 8087 ft 321 kts 153°
2026-05-05 18:12 45.62226 8.81835 7614 ft 318 kts 153°
2026-05-05 18:13 45.60300 8.83263 7145 ft 309 kts 153°
2026-05-05 18:13 45.58505 8.84593 6689 ft 299 kts 153°
2026-05-05 18:13 45.57283 8.85498 6370 ft 293 kts 153°
2026-05-05 18:13 45.55513 8.86807 5914 ft 285 kts 153°
2026-05-05 18:14 45.53792 8.88079 5467 ft 274 kts 153°
2026-05-05 18:14 45.52164 8.89282 5089 ft 261 kts 153°
2026-05-05 18:14 45.50598 8.90346 4715 ft 250 kts 159°
2026-05-05 18:14 45.49044 8.91038 4353 ft 241 kts 167°
2026-05-05 18:15 45.47477 8.91509 3984 ft 236 kts 169°
2026-05-05 18:15 45.45926 8.91933 3691 ft 229 kts 172°
2026-05-05 18:15 45.44410 8.91715 3430 ft 220 kts 208°
2026-05-05 18:15 45.43330 8.90337 3302 ft 207 kts 238°
2026-05-05 18:16 45.42846 8.88487 3244 ft 191 kts 262°
2026-05-05 18:16 45.42867 8.86631 3145 ft 189 kts 275°
2026-05-05 18:16 45.43017 8.84783 3021 ft 188 kts 276°
2026-05-05 18:16 45.43173 8.82943 3000 ft 188 kts 278°
2026-05-05 18:17 45.43694 8.81256 2980 ft 189 kts 311°
2026-05-05 18:17 45.44687 8.80019 3000 ft 190 kts 327°
2026-05-05 18:17 45.45830 8.79077 3000 ft 190 kts 332°
2026-05-05 18:17 45.46995 8.78201 2997 ft 190 kts 333°
2026-05-05 18:18 45.47329 8.77958 2996 ft 190 kts 335°
2026-05-05 18:18 45.48233 8.77477 3004 ft 190 kts 343°
2026-05-05 18:18 45.49486 8.77048 2993 ft 190 kts 348°
2026-05-05 18:18 45.50113 8.76880 2969 ft 190 kts 351°
2026-05-05 18:19 45.51284 8.76577 2767 ft 189 kts 350°
2026-05-05 18:19 45.52645 8.76217 2486 ft 186 kts 350°
2026-05-05 18:19 45.53886 8.75881 2232 ft 177 kts 349°
2026-05-05 18:19 45.55065 8.75553 2012 ft 164 kts 351°
2026-05-05 18:20 45.56124 8.75256 1815 ft 149 kts 351°
2026-05-05 18:20 45.57105 8.74981 1595 ft 138 kts 351°
2026-05-05 18:20 45.58042 8.74727 1435 ft 137 kts 351°
2026-05-05 18:20 45.58975 8.74493 1268 ft 137 kts 348°
2026-05-05 18:21 45.59920 8.74233 1084 ft 137 kts 348°
2026-05-05 18:21 45.60840 8.73971 898 ft 135 kts 347°
2026-05-05 18:21 45.61749 8.73708 719 ft 132 kts 348°
2026-05-05 18:21 45.62544 8.73488 720 ft 92 kts 349°
2026-05-05 18:22 45.63008 8.73348 730 ft 52 kts 343°
2026-05-05 18:22 45.63249 8.73098 737 ft 28 kts 304°
2026-05-05 18:22 45.63329 8.72926 739 ft 19 kts 305°
2026-05-05 18:22 45.63398 8.72774 742 ft 17 kts 290°
2026-05-05 18:23 45.63403 8.72613 743 ft 16 kts 260°
2026-05-05 18:23 45.63382 8.72451 743 ft 17 kts 259°
2026-05-05 18:23 45.63359 8.72275 744 ft 18 kts 259°
2026-05-05 18:23 45.63335 8.72084 744 ft 19 kts 260°
2026-05-05 18:24 45.63280 8.71976 744 ft 14 kts 187°
2026-05-05 18:24 45.63173 8.72002 741 ft 16 kts 168°
2026-05-05 18:24 45.63058 8.72030 739 ft 18 kts 172°
2026-05-05 18:24 45.62935 8.72060 737 ft 19 kts 169°
2026-05-05 18:25 45.62798 8.72100 734 ft 20 kts 169°
2026-05-05 18:25 45.62718 8.72116 733 ft 13 kts 191°
2026-05-05 18:25 45.62668 8.71971 733 ft 12 kts 258°
2026-05-05 18:25 45.62642 8.71859 733 ft 11 kts 219°
2026-05-05 18:26 45.62562 8.71860 732 ft 12 kts 167°
2026-05-05 18:26 45.62485 8.71871 731 ft 9 kts 209°
2026-05-05 18:26 45.62463 8.71798 731 ft 4 kts 258°
2026-05-05 18:26 45.62460 8.71774 731 ft 0 kts 259°
2026-05-05 18:27 45.62460 8.71773 731 ft 0 kts 259°